Flag for U.S.A. Weather past 2 weeks in Canton, Ohio, U.S.A.

Now
76 °F

Mostly cloudy.


Feels Like: 78 °F
Forecast: 67 / 78 °F
Wind: 7 mph from Southwest

Location: Akron-Canton Regional Airport

Current Time: Sep 2, 2014 at 1:50:17 PM

Latest Report: Sep 2, 2014 at 12:51 PM


Visibility: 10 mi

Pressure: 29.89 "Hg

Humidity: 69%

Dew point: 65 °F

Location of CantonLocation

Historic Weather in Canton — Graph

°F

Canton temperature yesterday

Maximum temperature yesterday: 83 °F (at 3:51 PM)
Minimum temperature yesterday: 71 °F (at 4:51 AM)
Average temperature yesterday: 76 °F

Past Weeks' High & Low Weather Summary

 TemperatureHumidityPressure
High88 °F (Aug 30, 1:51 PM)94% (Aug 20, 5:58 AM)30.17 "Hg (Aug 20, 5:58 AM)
Low54 °F (Aug 29, 3:51 AM)29% (Aug 29, 2:51 PM)29.80 "Hg (Aug 19, 4:51 PM)
Average73 °F72%30.01 "Hg
* Reported Aug 18 12:51 PM — Sep 2 12:51 PM, Canton, Weather by CustomWeather, © 2014

Note: Actual official high and low records may vary slightly from our data, if they occured in-between our weather recording intervals... More about our weather records

Advertising

Canton weather history for previous 24 hours

 ConditionsComfort  
Time TempWeatherWind HumidityBarometerVisibility
12:51 PM
Sep 2
76 °FMostly cloudy.7 mph69%29.89 "Hg10 mi
11:51 AM76 °FMostly cloudy.7 mph77%29.89 "Hg10 mi
10:51 AM75 °FLight rain. Mostly cloudy.8 mph76%29.90 "Hg7 mi
9:51 AM75 °FMostly cloudy.7 mph79%29.91 "Hg7 mi
8:51 AM73 °FFog.8 mph88%29.96 "Hg5 mi
7:51 AM72 °FFog.6 mph87%29.95 "Hg4 mi
6:51 AM71 °FFog.9 mph90%29.93 "Hg6 mi
5:58 AM72 °FFog.7 mph83%29.95 "Hg4 mi
4:51 AM72 °FFog.5 mph87%29.91 "Hg6 mi
3:51 AM73 °FPassing clouds.9 mph88%29.91 "Hg8 mi
2:51 AM74 °FPassing clouds.12 mph85%29.90 "Hg10 mi
1:51 AM74 °FPassing clouds.9 mph85%29.92 "Hg10 mi
12:51 AM74 °FPassing clouds.10 mph85%29.91 "Hg10 mi
11:51 PM
Sep 1
75 °FPassing clouds.10 mph82%29.91 "Hg10 mi
10:51 PM76 °FPassing clouds.13 mph80%29.91 "Hg10 mi
9:51 PM77 °FPartly cloudy.9 mph77%29.90 "Hg10 mi
8:51 PM78 °FBroken clouds.12 mph74%29.88 "Hg10 mi
7:51 PM78 °FPartly sunny.14 mph74%29.87 "Hg10 mi
6:51 PM80 °FBroken clouds.12 mph69%29.88 "Hg10 mi
5:51 PM81 °FBroken clouds.17 mph67%29.88 "Hg10 mi
4:51 PM82 °FBroken clouds.12 mph65%29.88 "Hg10 mi
3:51 PM83 °FBroken clouds.15 mph61%29.88 "Hg10 mi
2:51 PM81 °FMore clouds than sun.12 mph65%29.92 "Hg9 mi
1:51 PM80 °FMostly cloudy.9 mph67%29.94 "Hg9 mi
Weather by CustomWeather, © 2014

See weather overviewHow to use our weather pages